| time (UTC) | temp F | wind direction | speed MPH | gust MPH | rain 1hr in | rain 24hr in | rain mn in | humidity % | barometer mb |
| 20260509161601 | 64 | 182 | 4.0 | 8.0 | 0.00 | 0.00 | 0.00 | 53 | 1020.1 |
| 20260509160100 | 63 | 173 | 5.0 | 10.0 | 0.00 | 0.00 | 0.00 | 54 | 1020.1 |
| 20260509154555 | 63 | 215 | 3.0 | 9.0 | 0.00 | 0.00 | 0.00 | 54 | 1019.9 |
| 20260509153059 | 62 | 163 | 3.0 | 12.0 | 0.00 | 0.00 | 0.00 | 55 | 1019.8 |
| 20260509151557 | 61 | 192 | 5.0 | 11.0 | 0.00 | 0.00 | 0.00 | 56 | 1019.7 |
| 20260509150056 | 61 | 175 | 6.0 | 10.0 | 0.00 | 0.00 | 0.00 | 57 | 1019.8 |
| 20260509144558 | 60 | 136 | 3.0 | 10.0 | 0.00 | 0.00 | 0.00 | 60 | 1019.6 |
| 20260509143058 | 58 | 169 | 3.0 | 8.0 | 0.00 | 0.00 | 0.00 | 63 | 1019.5 |
| 20260509141608 | 57 | 157 | 2.0 | 9.0 | 0.00 | 0.00 | 0.00 | 64 | 1019.6 |
| 20260509134553 | 54 | 153 | 1.0 | 5.0 | 0.00 | 0.00 | 0.00 | 70 | 1019.6 |
| 20260509133052 | 52 | 191 | 0.0 | 4.0 | 0.00 | 0.00 | 0.00 | 71 | 1019.8 |
| 20260509131555 | 52 | 190 | 2.0 | 4.0 | 0.00 | 0.00 | 0.00 | 70 | 1019.7 |
| 20260509130059 | 52 | 191 | 0.0 | 3.0 | 0.00 | 0.00 | 0.00 | 69 | 1019.8 |
| 20260509124600 | 53 | 192 | 2.0 | 6.0 | 0.00 | 0.00 | 0.00 | 69 | 1019.7 |
| 20260509123101 | 52 | 194 | 1.0 | 4.0 | 0.00 | 0.00 | 0.00 | 72 | 1019.8 |
| 20260509121555 | 50 | 280 | 2.0 | 6.0 | 0.00 | 0.00 | 0.00 | 75 | 1019.5 |
| 20260509120058 | 50 | 29 | 1.0 | 4.0 | 0.00 | 0.00 | 0.00 | 75 | 1019.5 |
| 20260509114556 | 50 | 28 | 1.0 | 3.0 | 0.00 | 0.00 | 0.00 | 74 | 1019.5 |
| 20260509113118 | 50 | 28 | 1.0 | 5.0 | 0.00 | 0.00 | 0.00 | 73 | 1019.5 |
| 20260509111600 | 51 | 61 | 1.0 | 7.0 | 0.00 | 0.00 | 0.00 | 72 | 1019.3 |
| 20260509110053 | 51 | 171 | 1.0 | 7.0 | 0.00 | 0.00 | 0.00 | 71 | 1019.3 |
| 20260509104559 | 51 | 179 | 1.0 | 6.0 | 0.00 | 0.00 | 0.00 | 72 | 1019.5 |
| 20260509103058 | 51 | 56 | 1.0 | 3.0 | 0.00 | 0.00 | 0.00 | 70 | 1019.5 |
| 20260509101555 | 52 | 56 | 0.0 | 5.0 | 0.00 | 0.00 | 0.00 | 70 | 1019.4 |
| 20260509100110 | 52 | 184 | 1.0 | 3.0 | 0.00 | 0.00 | 0.00 | 69 | 1019.2 |
| 20260509094555 | 53 | 184 | 1.0 | 3.0 | 0.00 | 0.00 | 0.00 | 67 | 1019.0 |
| 20260509093053 | 54 | 0 | 1.0 | 6.0 | 0.00 | 0.00 | 0.00 | 66 | 1018.9 |
| 20260509091605 | 54 | 175 | 2.0 | 5.0 | 0.00 | 0.00 | 0.00 | 67 | 1019.0 |
| 20260509090052 | 53 | 0 | 2.0 | 5.0 | 0.00 | 0.00 | 0.00 | 67 | 1018.8 |
| 20260509084555 | 54 | 22 | 2.0 | 5.0 | 0.00 | 0.00 | 0.00 | 66 | 1018.7 |
| 20260509083059 | 56 | 167 | 3.0 | 13.0 | 0.00 | 0.00 | 0.00 | 62 | 1018.5 |
| 20260509081603 | 57 | 186 | 7.0 | 16.0 | 0.00 | 0.00 | 0.00 | 61 | 1018.6 |
| 20260509080100 | 57 | 184 | 9.0 | 19.0 | 0.00 | 0.00 | 0.00 | 61 | 1018.4 |
| 20260509074555 | 56 | 173 | 6.0 | 14.0 | 0.00 | 0.00 | 0.00 | 62 | 1018.4 |
| 20260509073105 | 56 | 157 | 6.0 | 15.0 | 0.00 | 0.00 | 0.00 | 61 | 1018.2 |
| 20260509071554 | 56 | 195 | 8.0 | 17.0 | 0.00 | 0.00 | 0.00 | 61 | 1018.2 |
| 20260509070059 | 57 | 180 | 6.0 | 12.0 | 0.00 | 0.00 | 0.00 | 60 | 1018.0 |
| 20260509064554 | 58 | 156 | 4.0 | 12.0 | 0.00 | 0.00 | 0.00 | 58 | 1018.0 |
| 20260509063101 | 58 | 185 | 7.0 | 15.0 | 0.00 | 0.00 | 0.00 | 56 | 1017.8 |
| 20260509061608 | 59 | 198 | 8.0 | 15.0 | 0.00 | 0.00 | 0.00 | 55 | 1017.7 |
| 20260509060058 | 59 | 198 | 6.0 | 14.0 | 0.00 | 0.00 | 0.00 | 55 | 1017.6 |
| 20260509054602 | 60 | 168 | 6.0 | 14.0 | 0.00 | 0.00 | 0.00 | 52 | 1017.7 |
| 20260509053102 | 61 | 195 | 6.0 | 15.0 | 0.00 | 0.00 | 0.00 | 51 | 1017.3 |
| 20260509051601 | 61 | 190 | 9.0 | 18.0 | 0.00 | 0.00 | 0.00 | 49 | 1017.0 |
| 20260509050058 | 61 | 188 | 8.0 | 18.0 | 0.00 | 0.00 | 0.00 | 48 | 1016.8 |
| 20260509044559 | 62 | 186 | 8.0 | 15.0 | 0.00 | 0.00 | 0.00 | 47 | 1016.6 |
| 20260509043059 | 62 | 192 | 5.0 | 13.0 | 0.00 | 0.00 | 0.00 | 47 | 1016.2 |
| 20260509041555 | 62 | 0 | 0.0 | 3.0 | 0.00 | 0.00 | 0.00 | 46 | 1016.0 |
| 20260509040058 | 64 | 0 | 1.0 | 4.0 | 0.00 | 0.00 | 0.00 | 43 | 1016.1 |
| 20260509034602 | 65 | 113 | 1.0 | 8.0 | 0.00 | 0.00 | 0.00 | 40 | 1015.8 |
| 20260509033056 | 67 | 279 | 4.0 | 17.0 | 0.00 | 0.00 | 0.00 | 37 | 1015.5 |
| 20260509031556 | 67 | 205 | 7.0 | 18.0 | 0.00 | 0.00 | 0.00 | 36 | 1014.5 |
| 20260509030054 | 68 | 220 | 8.0 | 17.0 | 0.00 | 0.00 | 0.00 | 34 | 1014.4 |
| 20260509024552 | 69 | 240 | 8.0 | 17.0 | 0.00 | 0.00 | 0.00 | 33 | 1014.2 |
| 20260509023055 | 70 | 213 | 7.0 | 15.0 | 0.00 | 0.00 | 0.00 | 32 | 1014.1 |
| 20260509021555 | 72 | 232 | 6.0 | 15.0 | 0.00 | 0.00 | 0.00 | 30 | 1014.0 |
| 20260509020053 | 72 | 257 | 4.0 | 17.0 | 0.00 | 0.00 | 0.00 | 28 | 1013.9 |
| 20260509014554 | 73 | 255 | 8.0 | 17.0 | 0.00 | 0.00 | 0.00 | 26 | 1013.9 |
| 20260509013058 | 74 | 234 | 7.0 | 18.0 | 0.00 | 0.00 | 0.00 | 26 | 1014.0 |
| 20260509011555 | 74 | 226 | 7.0 | 18.0 | 0.00 | 0.00 | 0.00 | 26 | 1014.1 |
| 20260509010052 | 75 | 216 | 9.0 | 18.0 | 0.00 | 0.00 | 0.00 | 22 | 1014.0 |
| 20260509004553 | 75 | 230 | 6.0 | 17.0 | 0.00 | 0.00 | 0.00 | 22 | 1014.0 |
| 20260509003058 | 75 | 201 | 9.0 | 18.0 | 0.00 | 0.00 | 0.00 | 22 | 1014.0 |
| 20260509001553 | 75 | 225 | 9.0 | 17.0 | 0.00 | 0.00 | 0.00 | 21 | 1013.9 |
| 20260509000052 | 75 | 208 | 8.0 | 20.0 | 0.00 | 0.00 | 0.00 | 19 | 1013.8 |
| 20260508234557 | 75 | 237 | 8.0 | 21.0 | 0.00 | 0.00 | 0.00 | 19 | 1013.9 |
| 20260508233106 | 76 | 198 | 6.0 | 14.0 | 0.00 | 0.00 | 0.00 | 16 | 1014.1 |
| 20260508231633 | 75 | 171 | 8.0 | 17.0 | 0.00 | 0.00 | 0.00 | 14 | 1014.2 |
| 20260508224603 | 77 | 176 | 4.0 | 12.0 | 0.00 | 0.00 | 0.00 | 13 | 1014.0 |
| 20260508223054 | 77 | 192 | 7.0 | 14.0 | 0.00 | 0.00 | 0.00 | 11 | 1014.2 |
| 20260508221600 | 76 | 238 | 7.0 | 16.0 | 0.00 | 0.00 | 0.00 | 16 | 1014.1 |
| 20260508214634 | 75 | 237 | 7.0 | 21.0 | 0.00 | 0.00 | 0.00 | 25 | 1014.0 |
| 20260508213059 | 74 | 253 | 7.0 | 23.0 | 0.00 | 0.00 | 0.00 | 26 | 1014.2 |
| 20260508211556 | 75 | 225 | 5.0 | 15.0 | 0.00 | 0.00 | 0.00 | 27 | 1014.5 |
| 20260508210058 | 74 | 223 | 9.0 | 18.0 | 0.00 | 0.00 | 0.00 | 27 | 1014.3 |
| 20260508204556 | 74 | 234 | 6.0 | 13.0 | 0.00 | 0.00 | 0.00 | 31 | 1014.1 |
| 20260508203116 | 74 | 246 | 7.0 | 15.0 | 0.00 | 0.00 | 0.00 | 29 | 1014.0 |
| 20260508201559 | 74 | 185 | 7.0 | 15.0 | 0.00 | 0.00 | 0.00 | 32 | 1014.1 |
| 20260508200103 | 74 | 182 | 7.0 | 14.0 | 0.00 | 0.00 | 0.00 | 33 | 1014.2 |
| 20260508194556 | 72 | 210 | 5.0 | 9.0 | 0.00 | 0.00 | 0.00 | 33 | 1014.3 |
| 20260508193137 | 72 | 194 | 8.0 | 15.0 | 0.00 | 0.00 | 0.00 | 32 | 1014.5 |
| 20260508191603 | 71 | 178 | 6.0 | 12.0 | 0.00 | 0.00 | 0.00 | 35 | 1014.6 |
| 20260508190053 | 68 | 172 | 3.0 | 10.0 | 0.00 | 0.00 | 0.00 | 40 | 1014.9 |
| 20260508184553 | 68 | 213 | 6.0 | 12.0 | 0.00 | 0.00 | 0.00 | 39 | 1015.1 |
| 20260508183052 | 68 | 199 | 3.0 | 12.0 | 0.00 | 0.00 | 0.00 | 38 | 1015.2 |
| 20260508181556 | 68 | 214 | 4.0 | 11.0 | 0.00 | 0.00 | 0.00 | 39 | 1015.3 |
| 20260508180105 | 68 | 208 | 6.0 | 12.0 | 0.00 | 0.00 | 0.00 | 40 | 1015.6 |
| 20260508174610 | 67 | 191 | 5.0 | 14.0 | 0.00 | 0.00 | 0.00 | 42 | 1015.6 |
| 20260508173054 | 66 | 219 | 8.0 | 18.0 | 0.00 | 0.00 | 0.00 | 40 | 1015.5 |
| 20260508171557 | 66 | 243 | 9.0 | 19.0 | 0.00 | 0.00 | 0.00 | 42 | 1015.5 |
| 20260508170057 | 66 | 212 | 6.0 | 17.0 | 0.00 | 0.00 | 0.00 | 42 | 1015.0 |
| 20260508164600 | 66 | 188 | 7.0 | 15.0 | 0.00 | 0.00 | 0.00 | 44 | 1015.0 |
| 20260508163104 | 66 | 190 | 4.0 | 12.0 | 0.00 | 0.00 | 0.00 | 44 | 1015.3 |